sat.trackr.live / text

‹ back to catalog

STARLINK-34674

NORAD 65526 · 2025-200G

PAYLOAD ACTIVE UNKNOWN

§ Identity

Operator
Country
US
Launch date
2025-09-06
Launch site
AFWTR
Launch vehicle
Mass (kg)
RCS (m²)

Purposes: comms

External: N2YO · Heavens-Above · Gunter

§ Orbital elements

Epoch: 2026-09-20T22:02:45.778560Z

Period
93.91 min
Inclination
97.2859°
Eccentricity
0.0000812
Mean motion
15.33450972 rev/d
Perigee alt
465.0 km
Apogee alt
466.1 km
Semi-major
6,843.7 km
B*
4.2160e-4
RAAN
330.2755°
Arg perigee
87.2427°
Mean anomaly
272.8908°
Rev number
5,871

§ Raw data

STARLINK-346741 65526U 25200G   26263.91858540  .00013563  00000+0  42160-3 0  99952 65526  97.2859 330.2755 0000812  87.2427 272.8908 15.33450972 58718

JSON: /api/v1/satellites/65526 · /tle

For live sub-satellite position, see the globe view (requires WebGL).

§ Visibility from observer

Set your observer location to see the next 7 days of passes ≥ 10°. The values pass through the URL so the page stays shareable.

No JS? Fill the form by hand. The geolocation button needs JavaScript.